Visibility
15.0 15.0 15.0 15.0 15.0 15.0 15.0 15.0 15.0 15.0 15.0 15.0 15.0 15.0 15.0 15.0 15.0 15.0 15.0 15.0 15.0 15.0 15.0 15.0 15.0 10.8 15.0 15.0 15.0 15.0 15.0 11.9 10.3 15.0 15.0 15.0 13.6 13.6 15.0 15.0 15.0 15.0 15.0
15.0 15.0 15.0 15.0 15.0 15.0 15.0 15.0 15.0 15.0 15.0 15.0 15.0 15.0 15.0 15.0 15.0 15.0 15.0 15.0 15.0 15.0 15.0 15.0 15.0 15.0 15.0 15.0 15.0 15.0 15.0 15.0 10.1 5.8 15.0 15.0 13.7 15.0 11.0 15.0 13.7 15.0 14.8
15.0 15.0 15.0 15.0 15.0 15.0 15.0 15.0 15.0 15.0 15.0 15.0 15.0 15.0 15.0 15.0 15.0 15.0 15.0 15.0 15.0 15.0 15.0 15.0 15.0 15.0 15.0 15.0 15.0 15.0 15.0 15.0 15.0 15.0 15.0 15.0 15.0 14.5 15.0 15.0 15.0 8.7 15.0
15.0 15.0 15.0 15.0 15.0 15.0 15.0 15.0 15.0 15.0 15.0 15.0 15.0 15.0 15.0 15.0 15.0 15.0 15.0 15.0 15.0 15.0 15.0 15.0 15.0 15.0 15.0 15.0 15.0 15.0 15.0 15.0 15.0 15.0 15.0 15.0 15.0 11.0 15.0 0.1 0.1 1.8 0.1
15.0 15.0 15.0 15.0 15.0 15.0 15.0 15.0 15.0 15.0 15.0 15.0 15.0 15.0 15.0 15.0 15.0 9.5 15.0 15.0 15.0 15.0 15.0 15.0 15.0 15.0 15.0 15.0 15.0 0.3 0.9 0.1 0.2 7.7 4.3 5.6 14.1 0.2 0.1 8.6 6.7 0.3 0.7
15.0 15.0 15.0 15.0 15.0 15.0 15.0 15.0 15.0 15.0 15.0 15.0 15.0 15.0 15.0 15.0 15.0 4.0 0.1 14.8 15.0 15.0 15.0 15.0 15.0 15.0 15.0 15.0 15.0 15.0 3.1 0.1 0.0 0.0 0.2 0.1 0.1 8.3 15.0 8.5 0.4 0.1 0.1
15.0 15.0 15.0 15.0 15.0 15.0 15.0 15.0 15.0 15.0 15.0 15.0 15.0 15.0 15.0 15.0 15.0 6.9 3.5 4.6 15.0 15.0 15.0 11.4 0.3 0.3 11.0 9.2 4.8 2.7 0.3 0.8 0.1 0.1 0.1 1.8 1.1 15.0 14.8 4.8 4.4 7.4 14.8
15.0 15.0 15.0 15.0 15.0 15.0 15.0 15.0 15.0 15.0 15.0 15.0 15.0 15.0 15.0 15.0 15.0 15.0 15.0 15.0 15.0 15.0 15.0 15.0 9.0 4.4 0.3 0.1 0.0 0.0 0.0 0.1 0.1 0.1 0.1 3.3 15.0 15.0 9.2 8.0 3.3 0.1 0.1
15.0 15.0 15.0 15.0 15.0 15.0 15.0 15.0 15.0 15.0 15.0 15.0 15.0 15.0 15.0 15.0 15.0 15.0 15.0 15.0 15.0 15.0 15.0 15.0 15.0 3.1 0.1 0.2 0.0 0.0 0.0 0.1 0.5 15.0 12.5 15.0 15.0 10.8 5.4 0.1 0.0 0.1 0.1
15.0 15.0 15.0 15.0 15.0 15.0 15.0 15.0 15.0 15.0 15.0 15.0 15.0 15.0 15.0 15.0 15.0 15.0 15.0 15.0 15.0 15.0 15.0 15.0 15.0 0.7 0.1 0.1 0.1 0.0 0.0 0.1 0.0 0.0 0.0 0.1 0.1 0.2 0.9 14.5 0.1 0.1 0.1
15.0 15.0 15.0 15.0 15.0 15.0 15.0 15.0 15.0 15.0 15.0 15.0 15.0 15.0 15.0 15.0 15.0 15.0 15.0 15.0 10.3 0.1 0.2 9.7 0.1 0.1 3.5 6.3 1.2 0.1 0.1 0.0 0.1 0.0 0.1 0.0 0.0 0.0 0.0 0.0 0.0 4.3 0.1
15.0 15.0 15.0 15.0 15.0 15.0 0.6 3.2 7.9 0.4 0.2 0.1 0.1 0.1 15.0 15.0 15.0 15.0 15.0 14.4 0.5 0.1 0.0 0.1 0.1 0.2 12.6 4.5 0.1 0.0 0.0 0.1 0.1 0.1 0.1 0.2 0.0 0.0 0.0 0.0 0.0 0.0 0.0
15.0 15.0 15.0 15.0 15.0 15.0 0.1 0.1 0.0 0.1 0.0 0.0 0.0 14.3 15.0 15.0 15.0 15.0 13.8 0.2 0.1 0.1 0.1 0.1 13.5 15.0 0.2 0.0 0.0 0.0 0.3 0.2 0.1 0.1 0.2 0.2 0.1 0.1 0.1 0.1 0.1 0.1 0.1
15.0 15.0 15.0 15.0 15.0 15.0 1.7 0.1 0.0 0.0 0.0 0.0 0.2 15.0 15.0 15.0 15.0 15.0 15.0 13.3 0.5 0.0 0.2 0.1 0.0 0.1 0.3 0.3 0.1 1.1 0.2 0.2 0.1 0.2 0.2 0.2 0.1 0.1 0.1 0.1 0.2 0.1 0.3
15.0 15.0 15.0 15.0 15.0 15.0 15.0 15.0 0.2 0.1 0.1 0.1 0.1 12.9 1.2 1.1 15.0 15.0 12.3 0.1 0.1 0.0 0.0 0.1 0.2 1.1 1.5 0.3 0.2 0.2 0.1 0.1 0.1 0.1 0.2 0.2 0.1 0.2 0.1 0.1 0.6 0.3 1.9
15.0 15.0 15.0 15.0 15.0 15.0 15.0 15.0 15.0 15.0 15.0 15.0 15.0 15.0 15.0 15.0 15.0 15.0 15.0 14.7 0.1 0.0 0.1 0.2 0.2 0.6 0.6 0.4 0.1 0.1 0.1 0.1 0.1 0.3 0.2 0.1 0.1 0.1 0.1 0.1 0.1 0.2 0.2
15.0 15.0 15.0 15.0 15.0 15.0 15.0 14.8 2.4 15.0 15.0 15.0 15.0 15.0 15.0 15.0 15.0 15.0 15.0 15.0 0.1 0.0 0.2 0.4 0.2 0.4 0.2 0.2 0.1 0.1 0.1 0.1 0.1 2.6 12.9 1.1 0.5 0.3 0.5 0.2 0.1 0.3 0.1
15.0 15.0 15.0 15.0 15.0 15.0 15.0 15.0 12.8 0.5 1.4 15.0 15.0 15.0 15.0 15.0 15.0 15.0 15.0 0.1 0.0 0.1 0.9 0.4 0.2 0.2 0.4 0.2 0.1 0.1 0.1 0.1 0.2 2.7 4.5 5.8 2.0 2.3 0.9 1.3 1.2 4.5 8.1
15.0 11.8 15.0 15.0 15.0 15.0 13.5 15.0 14.8 10.6 6.4 9.8 15.0 15.0 14.0 15.0 15.0 15.0 6.0 0.7 0.4 0.3 0.1 0.1 0.2 0.3 0.3 0.1 0.1 0.1 0.1 0.1 0.2 0.5 0.6 0.4 0.2 0.7 0.3 5.2 15.0 15.0 15.0
15.0 11.8 13.5 15.0 15.0 15.0 15.0 15.0 15.0 7.4 1.3 1.6 5.5 10.7 0.9 14.8 3.6 12.7 0.4 7.4 1.9 1.3 0.3 0.2 0.7 0.4 0.4 0.1 0.1 0.1 0.1 0.1 0.1 0.1 0.2 0.4 3.0 12.5 15.0 15.0 15.0 9.9 15.0
15.0 10.1 15.0 15.0 15.0 15.0 15.0 15.0 15.0 15.0 2.0 0.7 1.4 3.3 2.8 0.1 0.1 0.1 0.5 0.1 4.0 5.2 1.5 0.8 0.5 0.5 0.5 0.1 0.1 0.1 0.1 0.1 0.1 0.1 8.4 15.0 15.0 15.0 15.0 15.0 15.0 15.0 15.0
15.0 15.0 15.0 15.0 15.0 15.0 15.0 15.0 15.0 15.0 10.2 1.3 0.5 2.2 0.6 4.7 4.9 5.2 8.7 1.6 4.3 9.1 2.7 0.8 0.7 0.8 1.4 0.1 0.2 0.1 0.1 0.1 0.1 1.9 15.0 15.0 15.0 15.0 14.8 15.0 15.0 15.0 15.0
15.0 15.0 15.0 15.0 15.0 9.6 13.1 15.0 15.0 14.7 9.4 11.8 0.9 0.3 0.2 0.7 5.0 5.2 5.7 5.5 0.6 1.1 1.8 0.5 0.7 0.7 0.3 0.1 0.2 0.3 0.2 0.3 1.2 14.9 15.0 15.0 15.0 15.0 15.0 15.0 15.0 9.8 15.0
15.0 15.0 15.0 15.0 5.7 15.0 7.7 7.7 15.0 15.0 15.0 15.0 5.6 1.8 0.3 0.1 2.4 12.2 5.9 1.9 1.1 0.5 1.1 0.6 0.9 0.8 0.3 0.2 0.1 0.2 0.3 0.8 11.8 15.0 15.0 15.0 15.0 13.7 15.0 15.0 15.0 15.0 15.0
15.0 6.4 4.5 5.2 5.2 7.4 7.2 5.1 8.5 15.0 14.2 11.9 7.0 1.2 0.8 0.1 0.1 3.2 15.0 4.2 0.4 0.5 0.4 0.4 0.3 0.8 2.3 2.6 6.8 15.0 15.0 15.0 15.0 15.0 15.0 15.0 15.0 15.0 15.0 15.0 15.0 15.0 15.0
15.0 15.0 7.6 5.1 5.0 4.7 4.9 3.8 14.1 15.0 15.0 11.9 11.8 4.9 0.5 0.2 0.1 0.7 1.7 7.6 0.7 0.4 0.6 0.4 0.4 0.6 0.7 1.2 1.7 5.6 15.0 15.0 15.0 15.0 15.0 15.0 15.0 15.0 15.0 15.0 15.0 15.0 15.0